Powrót do katalogu

YUNYAO-1 45

AktywnyPogodaSSO
NORAD 63346·PAYLOAD·🇨🇳 China

Wystrzelony Mar 21, 2025 z Jiuquan Satellite Launch Center

Loading…

Następne Przeloty (najbliższe 24 godziny)

TLE

ŚwieżeSource: Space-Track

Epoka: Sep 14, 2026, 23:31 UTC

1 63346U 25059C   26257.98012635  .00003229  00000-0  19426-3 0  9990
2 63346  97.6154  79.0833 0015025 204.3693 155.6829 15.11475235 81869

Śledź YUNYAO-1 45 w czasie rzeczywistym z AllMySat

Download on the App Store